DateTimeUTC,F1_A11,F1_S11,BsB_S11,BsG_S11,BsR_S11,BbsB_S11,BbsG_S11,BbsR_S11,BaB_A11,BaG_A11,BaR_A11,Tu_S11,T_S11,Uu_S11,U_S11,P_S11,T1_A11
2021-01-24T04:00:00Z,00000200,21000000,,,,,,,-000.18,0000.11,0000.03,15.9,23.1,,00.0,0650.2,30.9
2021-01-24T04:01:00Z,00000200,21000000,,,,,,,-000.56,-000.31,-000.23,15.9,23.1,,00.0,0650.2,30.9
2021-01-24T04:02:00Z,00000200,21000000,,,,,,,0000.54,0000.18,0000.53,15.9,23.1,,00.0,0650.2,30.9
2021-01-24T04:03:00Z,00000200,61000000,,,,,,,0000.18,0000.25,-000.01,15.9,23.2,,00.0,0650.2,30.9
2021-01-24T04:04:00Z,00000200,41000000,0000.15,0000.01,0000.18,0000.25,0000.31,0000.01,0000.06,0000.37,0000.17,16.2,23.0,,00.0,0651.1,30.9
2021-01-24T04:05:00Z,00000200,01000000,0000.07,0000.05,0000.27,0000.40,0000.21,-000.03,-000.12,-000.21,-000.26,16.2,22.9,,00.0,0651.1,30.9
2021-01-24T04:06:00Z,00000200,01000000,0000.75,0000.06,0000.07,0000.34,0000.40,0000.04,0000.47,0000.30,0000.25,16.2,22.9,,00.0,0651.1,30.9
2021-01-24T04:07:00Z,00000200,01000000,0000.16,-000.02,0000.21,0000.49,0000.20,-000.01,0000.24,0000.29,-000.11,16.2,22.9,,00.0,0651.1,30.9
2021-01-24T04:08:00Z,00000200,01000000,0000.57,0000.05,0000.28,0000.15,0000.24,0000.08,0000.02,-000.14,0000.17,16.1,22.9,,00.0,0651.1,30.9
2021-01-24T04:09:00Z,00000200,01000000,-000.17,0000.19,0000.24,-000.33,-000.08,0000.20,0000.06,0000.27,0000.27,16.1,22.9,,00.0,0651.1,30.9
2021-01-24T04:10:00Z,00000200,01000000,0000.30,0000.15,0000.18,-000.06,0000.03,-000.22,0000.09,-000.52,-000.26,16.1,22.8,,00.0,0651.1,30.9
2021-01-24T04:11:00Z,00000200,01000000,-000.48,0000.25,0000.31,0000.37,0000.09,0000.14,0000.18,0000.52,0000.34,16.1,22.8,,00.0,0651.1,30.9
2021-01-24T04:12:00Z,00000200,01000000,-000.15,-000.04,0000.05,0000.31,0000.42,0000.10,0000.27,0000.59,0000.40,16.1,22.8,,00.0,0651.1,30.9
2021-01-24T04:13:00Z,00000200,01000000,0000.16,0000.13,-000.05,0000.62,0000.27,0000.15,0000.10,-000.00,0000.15,16.2,22.8,,00.0,0651.0,30.9
2021-01-24T04:14:00Z,00000200,01000000,0000.18,0000.11,0000.10,-000.36,0000.03,0000.36,-000.04,0000.02,-000.44,16.3,22.8,,00.0,0651.0,30.9
2021-01-24T04:15:00Z,00000200,01000000,-000.09,-000.10,0000.14,-000.16,0000.22,0000.14,0000.55,-000.03,0000.19,16.3,22.9,,00.0,0651.0,30.9
2021-01-24T04:16:00Z,00000200,01000000,-000.13,-000.15,-000.08,0000.09,0000.05,0000.01,-000.15,0000.14,0000.04,16.3,22.9,,00.0,0651.0,30.9
2021-01-24T04:17:00Z,00000200,01000000,0000.29,-000.05,0000.41,0000.11,0000.21,0000.22,0000.26,-000.04,0000.41,16.3,22.9,,00.0,0650.9,30.9
2021-01-24T04:18:00Z,00000200,01000000,0000.08,0000.12,0000.04,0000.09,0000.12,0000.19,-000.09,0000.08,0000.02,16.3,22.9,,00.0,0650.9,30.9
2021-01-24T04:19:00Z,00000200,01000000,0000.33,0000.07,0000.23,0000.30,0000.15,0000.12,0000.31,0000.36,0000.04,16.3,22.9,,00.0,0650.9,30.9
2021-01-24T04:20:00Z,00000200,01000000,0000.16,-000.24,0000.21,0000.37,0000.18,0000.20,0000.03,0000.14,-000.22,16.3,22.9,,00.0,0650.9,30.9
2021-01-24T04:21:00Z,00000200,01000000,-000.01,-000.04,-000.11,0000.17,0000.17,0000.10,0000.07,0000.05,0000.19,16.2,22.9,,00.0,0650.8,30.9
2021-01-24T04:22:00Z,00000200,01000000,0000.48,-000.16,0000.12,0000.59,0000.21,0000.24,0000.36,0000.02,0000.41,16.2,22.9,,00.0,0650.8,30.9
2021-01-24T04:23:00Z,00000200,01000000,-000.22,-000.03,0000.22,0000.07,-000.01,0000.29,-000.12,0000.11,0000.07,16.2,22.8,,00.0,0650.8,30.9
2021-01-24T04:24:00Z,00000200,01000000,0000.25,-000.04,-000.04,0000.53,-000.09,-000.03,0000.12,0000.24,-000.09,16.2,22.8,,00.0,0650.8,30.9
2021-01-24T04:25:00Z,00000200,01000000,-000.18,-000.04,0000.26,0000.07,0000.27,0000.00,-000.02,-000.19,-000.09,16.1,22.8,,00.0,0650.7,30.9
2021-01-24T04:26:00Z,00000200,01000000,0000.31,0000.06,-000.15,0000.22,0000.22,0000.18,0000.18,-000.04,0000.33,16.1,22.8,,00.0,0650.7,30.9
2021-01-24T04:27:00Z,00000200,01000000,0000.35,-000.09,-000.12,-000.15,-000.01,-000.17,0000.41,0000.34,0000.15,16.2,22.8,,00.0,0650.7,30.9
2021-01-24T04:28:00Z,00000200,01000000,0000.01,0000.22,0000.04,0000.35,0000.31,0000.00,-000.10,0000.46,0000.22,16.2,22.8,,00.0,0650.6,30.9
2021-01-24T04:29:00Z,00000200,01000000,0000.23,-000.08,0000.15,0000.43,-000.04,0000.07,0000.37,0000.31,0000.02,16.3,22.9,,00.0,0650.7,30.9
2021-01-24T04:30:00Z,00000200,01000000,0000.54,-000.08,0000.27,0000.54,0000.09,-000.04,0000.09,-000.10,-000.06,16.4,22.9,,00.0,0650.6,30.9
2021-01-24T04:31:00Z,00000200,01000000,0000.88,0000.12,0000.19,0000.24,-000.07,-000.04,-000.30,-000.20,-000.28,16.4,22.9,,00.0,0650.6,30.9
2021-01-24T04:32:00Z,00000200,01000000,-000.13,-000.37,0000.14,-000.75,-000.13,-000.07,0000.31,0000.23,0000.38,16.4,22.9,,00.0,0650.6,30.9
2021-01-24T04:33:00Z,00000200,01000000,0000.28,-000.13,0000.14,0000.16,0000.26,0000.04,0000.20,0000.09,-000.23,16.4,22.9,,00.0,0650.6,30.9
2021-01-24T04:34:00Z,00000200,01000000,-000.12,0000.36,-000.21,0000.30,0000.02,-000.08,0000.08,0000.10,0000.13,16.4,22.9,,00.0,0650.6,30.9
2021-01-24T04:35:00Z,00000200,01000000,0000.03,0000.20,0000.22,0000.21,0000.10,0000.19,0000.20,0000.19,0000.41,16.3,22.9,,00.0,0650.5,30.9
2021-01-24T04:36:00Z,00000200,01000000,0000.41,0000.02,-000.06,0000.64,0000.12,-000.02,0000.15,-000.19,-000.27,16.3,22.9,,00.0,0650.5,30.9
2021-01-24T04:37:00Z,00000200,01000000,0000.25,-000.22,-000.11,0000.12,-000.07,0000.40,0000.00,0000.30,-000.11,16.3,22.9,,00.0,0650.5,30.9
2021-01-24T04:38:00Z,00000200,01000000,-000.29,0000.02,0000.20,0000.27,-000.01,0000.07,0000.13,0000.29,0000.44,16.3,22.9,,00.0,0650.5,30.9
2021-01-24T04:39:00Z,00000200,01000000,0000.28,0000.24,0000.10,0000.36,0000.21,0000.06,0000.05,0000.07,-000.24,16.2,22.8,,00.0,0650.4,30.9
2021-01-24T04:40:00Z,00000200,01000000,0000.40,0000.12,-000.03,0000.21,0000.20,-000.01,0000.48,-000.22,0000.57,16.2,22.8,,00.0,0650.4,30.9
2021-01-24T04:41:00Z,00000200,01000000,0000.39,0000.19,0000.53,-000.26,0000.21,-000.09,0000.32,0000.67,0000.25,16.2,22.8,,00.0,0650.3,30.9
2021-01-24T04:42:00Z,00000200,01000000,-000.29,0000.33,-000.11,-000.21,0000.22,0000.08,0000.23,0000.21,0000.14,16.2,22.8,,00.0,0650.3,30.9
2021-01-24T04:43:00Z,00000200,01000000,-000.32,-000.03,-000.07,0000.37,0000.26,-000.12,0000.43,-000.04,0000.08,16.3,22.8,,00.0,0650.3,30.9
2021-01-24T04:44:00Z,00000200,01000000,-000.11,0000.33,0000.17,0000.16,0000.34,0000.40,0000.57,0001.03,0000.48,16.4,22.9,,00.0,0650.3,30.9
2021-01-24T04:45:00Z,00000200,01000000,0000.26,0000.12,0000.02,0000.03,0000.30,0000.33,0000.18,0000.39,0000.04,16.4,22.9,,00.0,0650.2,30.9
2021-01-24T04:46:00Z,00000200,01000000,-000.36,0000.13,0000.13,0000.41,0000.17,-000.00,-000.04,-000.20,0000.04,16.5,22.9,,00.0,0650.2,30.9
2021-01-24T04:47:00Z,00000200,01000000,0000.25,-000.12,-000.13,0000.49,0000.08,0000.01,0000.59,0000.23,-000.07,16.5,22.9,,00.0,0650.1,30.9
2021-01-24T04:48:00Z,00000200,01000000,0000.22,0000.10,0000.07,0000.62,0000.22,0000.09,-000.06,0000.16,0000.38,16.5,22.9,,00.0,0650.1,30.9
2021-01-24T04:49:00Z,00000200,01000000,0000.22,0000.21,0000.05,0000.44,-000.10,0000.12,0000.07,-000.07,-000.05,16.5,22.9,,00.0,0650.1,30.9
2021-01-24T04:50:00Z,00000200,01000000,0000.08,-000.03,0000.15,0000.12,0000.08,0000.13,-000.99,-000.70,-000.78,16.4,22.9,,00.0,0650.1,30.9
2021-01-24T04:51:00Z,00000200,01000000,-000.30,0000.05,0000.07,0000.34,0000.06,-000.10,0000.07,-000.01,-000.35,16.4,22.9,,00.0,0650.1,30.9
2021-01-24T04:52:00Z,00000200,01000000,0000.78,-000.14,-000.12,0000.37,0000.27,0000.03,0000.13,0000.05,0000.37,16.4,22.9,,00.0,0650.1,30.9
2021-01-24T04:53:00Z,00000200,01000000,0000.94,0000.00,0000.02,0000.20,0000.15,0000.01,0000.19,-000.03,-000.26,16.3,22.9,,00.0,0650.1,30.9
2021-01-24T04:54:00Z,00000200,01000000,0000.51,0000.00,-000.34,0000.34,-000.26,0000.03,-000.14,0000.06,0000.24,16.3,22.9,,00.0,0650.1,30.9
2021-01-24T04:55:00Z,00000200,01000000,0000.57,-000.22,0000.05,0000.19,0000.00,0000.17,-000.23,-000.36,-000.24,16.3,22.9,,00.0,0650.1,30.9
2021-01-24T04:56:00Z,00000200,01000000,0000.13,-000.06,0000.08,-000.41,0000.04,0000.10,0000.19,0000.46,0000.26,16.3,22.8,,00.0,0650.1,30.9
2021-01-24T04:57:00Z,00000200,41000000,,,,,,,-000.27,-000.61,-000.21,16.3,22.8,,00.0,0650.1,30.9
2021-01-24T04:58:00Z,00000200,61000000,,,,,,,0000.04,0000.54,0000.40,16.0,23.0,,00.0,0649.2,30.9
2021-01-24T04:59:00Z,00000200,21000000,,,,,,,0000.19,-000.07,-000.15,16.1,23.1,,00.0,0649.2,30.9
